Location: Stilling
(56.0622°N, 9.9882°E)
Time: 00:07:44
(UTC+00:00)

Cosmos 1076 Rocket - Pass Details

Date: 13 July 2020
Orbit: 589 x 613 km, 82.5° (Epoch: 03 August)

Event Time Altitude Azimuth Distance (km) Brightness Sun altitude
Rises 21:29:56 0° 202° (SSW) 2,832 6.6 -8.5°
Reaches altitude 10° 21:32:10 10° 206° (SSW) 1,930 5.7 -8.6°
Maximum altitude 21:36:22 58° 286° (WNW) 700 4.1 -8.9°
Drops below altitude 10° 21:40:36 10° 6° (N) 1,935 7.1 -9.1°
Sets 21:42:50 0° 11° (N) 2,839 8.0 -9.3°
